TimeCST,TemperatureF,Dew PointF,Humidity,Sea Level PressureIn,VisibilityMPH,Wind Direction,Wind SpeedMPH,Gust SpeedMPH,PrecipitationIn,Events,Conditions,WindDirDegrees,DateUTC
12:53 AM,41.0,30.9,67,29.67,10.0,NW,11.5,-,N/A,,Overcast,320,2014-01-13 06:53:00
1:53 AM,39.9,30.9,70,29.66,10.0,NNW,11.5,-,N/A,,Scattered Clouds,340,2014-01-13 07:53:00
2:53 AM,39.0,30.9,73,29.68,10.0,NNW,4.6,-,N/A,,Partly Cloudy,330,2014-01-13 08:53:00
3:53 AM,37.9,30.9,76,29.71,10.0,West,5.8,-,N/A,,Mostly Cloudy,270,2014-01-13 09:53:00
4:53 AM,37.9,32.0,79,29.73,10.0,West,6.9,-,N/A,,Overcast,280,2014-01-13 10:53:00
5:53 AM,37.9,30.9,76,29.76,10.0,West,10.4,-,N/A,,Mostly Cloudy,270,2014-01-13 11:53:00
6:53 AM,37.9,28.9,70,29.79,10.0,WNW,9.2,-,N/A,,Partly Cloudy,300,2014-01-13 12:53:00
7:53 AM,36.0,28.0,73,29.82,10.0,NW,6.9,-,N/A,,Partly Cloudy,310,2014-01-13 13:53:00
8:53 AM,39.0,28.0,65,29.84,10.0,NW,11.5,-,N/A,,Partly Cloudy,310,2014-01-13 14:53:00
9:53 AM,41.0,28.9,62,29.86,10.0,NNW,12.7,-,N/A,,Partly Cloudy,330,2014-01-13 15:53:00
10:53 AM,43.0,28.9,58,29.89,10.0,NW,13.8,21.9,N/A,,Partly Cloudy,320,2014-01-13 16:53:00
11:53 AM,44.1,28.0,53,29.88,10.0,West,15.0,-,N/A,,Clear,280,2014-01-13 17:53:00
12:53 PM,45.0,26.1,48,29.86,10.0,West,15.0,-,N/A,,Partly Cloudy,280,2014-01-13 18:53:00
1:53 PM,46.0,25.0,44,29.85,10.0,WNW,10.4,-,N/A,,Partly Cloudy,290,2014-01-13 19:53:00
2:53 PM,46.0,25.0,44,29.86,10.0,WNW,11.5,-,N/A,,Partly Cloudy,290,2014-01-13 20:53:00
3:53 PM,46.0,24.1,42,29.85,10.0,WNW,9.2,-,N/A,,Partly Cloudy,300,2014-01-13 21:53:00
4:53 PM,44.1,21.0,40,29.86,10.0,West,5.8,-,N/A,,Partly Cloudy,260,2014-01-13 22:53:00
5:53 PM,39.9,21.0,47,29.86,10.0,SW,5.8,-,N/A,,Partly Cloudy,220,2014-01-13 23:53:00
6:53 PM,39.0,21.0,49,29.86,10.0,SW,5.8,-,N/A,,Scattered Clouds,220,2014-01-14 00:53:00
7:53 PM,30.0,21.0,69,29.85,10.0,South,8.1,-,N/A,,Clear,170,2014-01-14 01:53:00
8:53 PM,30.9,23.0,72,29.83,10.0,South,12.7,-,N/A,,Clear,170,2014-01-14 02:53:00
9:53 PM,32.0,24.1,73,29.81,10.0,South,10.4,-,N/A,,Mostly Cloudy,180,2014-01-14 03:53:00
10:53 PM,36.0,25.0,64,29.80,10.0,SSW,10.4,-,N/A,,Mostly Cloudy,200,2014-01-14 04:53:00
11:53 PM,37.9,24.1,57,29.78,10.0,SSW,11.5,-,N/A,,Clear,210,2014-01-14 05:53:00